Saturna Island, British Columbia

12:05 PM PST on December 09, 2016 (GMT -0800)
Saturna Island

Weather History for CWEZ - December, 2013

Change the Weather History Date:

Wednesday, December 18, 2013

  Actual Average Record
Temperature  
Mean Temperature 42 °F -  
Max Temperature 45 °F - - ()
Min Temperature 38 °F - - ()
Degree Days  
Heating Degree Days 24    
Moisture  
Dew Point 33 °F    
Average Humidity 69    
Maximum Humidity 90    
Minimum Humidity 41    
Precipitation  
Precipitation 0.03 in - - ()
Sea Level Pressure  
Sea Level Pressure 30.08 in    
Wind  
Wind Speed 8 mph ()    
Max Wind Speed 26 mph    
Max Gust Speed 20 mph    
T = Trace of Precipitation, MM = Missing Value Source: Averaged Metar Reports

Daily Weather History Graph

Daily Weather History Graph

Search for Another Location

Airport or City:

Trip Planner

Search our weather history database for the weather conditions in past years. The results will help you decide how hot, cold, wet, or windy it might be!

Date:

Astronomy

Dec. 18, 2013 Rise Set
Actual Time 8:01 AM PST 4:16 PM PST
Civil Twilight 7:23 AM PST 4:54 PM PST
Nautical Twilight 6:43 AM PST 5:34 PM PST
Astronomical Twilight 6:05 AM PST 6:13 PM PST
Moon 6:01 PM PST (12/18) 8:37 AM PST (12/18)
Length of Visible Light 9h 30m
Length of Day
8h 15m
Full, 98% of the Moon is Illuminated
Dec 18
Full
Dec 25
Last Quarter
Jan 1
New
Jan 7
First Quarter
Jan 15
Full

Hourly Weather History & Observations

Time (PST) Temp. Windchill Dew Point Humidity Pressure Visibility Wind Dir Wind Speed Gust Speed Precip Events Conditions
12:00 AM 44.2 °F 38.0 °F 41.5 °F 90% 30.06 in - SSW 12.7 mph - N/A   Unknown
1:00 AM 44.1 °F 39.5 °F 41.0 °F 89% 30.06 in - West 8.1 mph - N/A   Unknown
2:00 AM 45.1 °F 39.9 °F 39.4 °F 80% 30.07 in - WSW 10.4 mph - N/A   Unknown
3:00 AM 43.7 °F 40.3 °F 37.8 °F 80% 30.06 in - West 5.8 mph - N/A   Unknown
4:00 AM 46 °F - 37 °F 62% 30.05 in - West 10.4 mph - -  
4:00 AM 45.9 °F 40.8 °F 37.0 °F 71% 30.05 in - West 10.4 mph 19.6 mph N/A   Unknown
5:00 AM 44.8 °F 41.0 °F 37.0 °F 74% 30.05 in - West 6.9 mph - N/A   Unknown
6:00 AM 42.6 °F 40.9 °F 37.2 °F 81% 30.05 in - NNW 3.5 mph - N/A   Unknown
7:00 AM 41.4 °F 39.4 °F 35.2 °F 79% 30.05 in - NNW 3.5 mph - N/A   Unknown
8:00 AM 41.2 °F - 34.0 °F 76% 30.06 in - NNW 2.3 mph - N/A   Unknown
9:00 AM 41.5 °F 39.6 °F 34.0 °F 75% 30.06 in - WNW 3.5 mph - N/A   Unknown
10:00 AM 42 °F - 34 °F 64% 30.07 in - NNW 2.3 mph - -  
10:00 AM 41.7 °F - 33.8 °F 73% 30.07 in - NNW 2.3 mph - N/A   Unknown
11:00 AM 43.0 °F 41.3 °F 31.5 °F 64% 30.06 in - NW 3.5 mph - N/A   Unknown
12:00 PM 43.3 °F 41.7 °F 30.4 °F 60% 30.05 in - West 3.5 mph - N/A   Unknown
1:00 PM 42.3 °F 40.5 °F 31.3 °F 65% 30.04 in - NNW 3.5 mph - N/A   Unknown
2:00 PM 41.7 °F 39.8 °F 28.2 °F 59% 30.03 in - NW 3.5 mph - N/A   Unknown
3:00 PM 41.2 °F 39.2 °F 27.9 °F 59% 30.05 in - NNW 3.5 mph - N/A   Unknown
4:00 PM 41 °F - 29 °F 50% 30.06 in - NW 3.5 mph - -  
4:00 PM 40.8 °F 38.8 °F 28.8 °F 62% 30.06 in - NW 3.5 mph - N/A   Unknown
5:00 PM 40.6 °F 38.6 °F 31.5 °F 70% 30.07 in - NW 3.5 mph - N/A   Unknown
6:00 PM 39.4 °F 29.2 °F 36.1 °F 88% 30.07 in - ENE 21.9 mph - 0.03 in   Unknown
7:00 PM 38.1 °F 29.1 °F 34.5 °F 87% 30.11 in - East 16.1 mph - N/A   Unknown
8:00 PM 38.5 °F 29.9 °F 30.2 °F 72% 30.14 in - ENE 15.0 mph - N/A   Unknown
9:00 PM 40.3 °F 29.5 °F 27.0 °F 59% 30.18 in - ENE 26.5 mph - N/A   Unknown
10:00 PM 40 °F - 25 °F 41% 30.19 in - ENE 26.5 mph - -  
10:00 PM 40.1 °F 29.2 °F 24.6 °F 54% 30.19 in - ENE 26.5 mph - N/A   Unknown
11:00 PM 39.7 °F 29.0 °F 25.2 °F 56% 30.19 in - East 25.3 mph - N/A   Unknown